Location: L�gaud
(45.7115°N, 1.7775°E)
Time: 20:57:52
(UTC+00:00)

Lacrosse 4 Rocket - Pass Details

Date: 03 March 2021
Orbit: 537 x 620 km, 68.0° (Epoch: 13 April)

Event Time Altitude Azimuth Distance (km) Brightness Sun altitude
Rises 19:09:40 0° 180° (S) 2,811 4.9 -16.0°
Reaches altitude 10° 19:12:06 10° 168° (SSE) 1,930 3.9 -16.4°
Enters shadow 19:14:32 24° 139° (SE) 1,264 2.7 -16.8°
